Location: Newark
(36.0797°N, 3.9744°E)
Time: 04:32:34
(UTC+00:00)

Vanguard 2 Rocket - Pass Details

Date: 13 December 2019
Orbit: 554 x 3326 km, 32.9° (Epoch: 24 January)

Event Time Altitude Azimuth Distance (km) Brightness Sun altitude
Rises 19:27:26 0° 269° (W) 6,296 12.2 -34.9°
Reaches altitude 10° 19:32:15 10° 268° (W) 4,862 11.4 -35.9°
Enters shadow 19:44:01 70° 217° (SW) 1,559 7.9 -38.3°
Maximum altitude 19:44:40 72° 187° (S) 1,495 - -38.4°
Drops below altitude 10° 19:51:26 10° 104° (ESE) 2,767 - -39.7°
Sets 19:53:29 0° 102° (ESE) 3,488 - -40.2°
